1507615201.15,11843,10.19,73150.5,-8.83,-10.09,-10.31,0,*57
1507615202.36,11844,10.19,73154.3,-8.83,-10.19,-10.23,0,*52
1507615203.57,11845,10.19,73156.3,-8.83,-10.23,-10.31,0,*59
1507615204.79,11846,10.19,73156.0,-8.85,-10.23,-10.19,0,*56
1507615206.01,11847,10.19,73152.5,-8.85,-10.19,-10.23,0,*57
1507615207.22,11848,10.19,73152.5,-8.85,-10.19,-10.09,0,*50
1507615208.43,11849,10.19,73154.3,-8.85,-10.19,-10.23,0,*59
1507615209.64,11850,10.19,73156.5,-8.83,-10.09,-10.23,0,*56
1507615210.86,11851,10.19,73154.0,-8.85,-10.19,-10.19,0,*59
1507615212.07,11852,10.19,73148.0,-8.85,-10.23,-10.23,0,*5A
1507615213.28,11853,10.19,73144.0,-8.83,-10.19,-10.23,0,*54
1507615214.5,11854,10.19,73144.8,-8.85,-10.19,-10.23,0,*55
1507615215.71,11855,10.19,73140.8,-8.85,-10.19,-10.23,0,*54
1507615216.93,11856,10.19,73144.0,-8.85,-10.19,-10.23,0,*57
1507615218.14,11857,10.19,73150.3,-8.85,-10.23,-10.23,0,*5F
1507615219.36,11858,10.19,73150.5,-8.83,-10.19,-10.31,0,*5C
1507615220.57,11859,10.19,73144.5,-8.83,-10.23,-10.35,0,*50
1507615221.78,11860,10.19,73148.0,-8.85,-10.23,-10.23,0,*5B
1507615222.99,11861,10.19,73146.8,-8.85,-10.23,-10.23,0,*5A
1507615224.21,11862,10.19,73146.3,-8.85,-10.23,-10.31,0,*5A
1507615225.42,11863,10.19,73140.0,-8.85,-10.23,-10.23,0,*58
1507615226.63,11864,10.19,73138.3,-8.85,-10.31,-10.31,0,*5F
1507615227.85,11865,10.19,73134.3,-8.85,-10.31,-10.31,0,*5E
1507615229.06,11866,10.19,73132.0,-8.85,-10.23,-10.31,0,*5E
1507615230.28,11867,10.19,73132.8,-8.85,-10.31,-10.23,0,*5F
1507615231.49,11868,10.19,73130.3,-8.85,-10.23,-10.35,0,*54
1507615232.71,11869,10.19,73122.8,-8.85,-10.23,-10.31,0,*51
1507615233.92,11870,10.19,73116.5,-8.85,-10.23,-10.23,0,*5A
1507615235.13,11871,10.19,73116.3,-8.85,-10.19,-10.23,0,*52
1507615236.38,11872,10.19,73120.3,-8.87,-10.35,-10.27,0,*59
1507615237.59,11873,10.19,73124.3,-8.85,-10.23,-10.31,0,*5A
1507615238.81,11874,10.19,73130.8,-8.85,-10.23,-10.31,0,*5D
1507615240.03,11875,10.19,73124.8,-8.85,-10.19,-10.31,0,*55
1507615241.27,11876,10.19,73124.8,-8.87,-10.27,-10.27,0,*5E
1507615242.48,11877,10.19,73116.0,-8.85,-10.19,-10.23,0,*54
1507615243.7,11878,10.19,73120.5,-8.85,-10.19,-10.19,0,*52
1507615244.92,11879,10.19,73112.0,-8.85,-10.19,-10.23,0,*5A
1507615246.16,11880,10.19,73108.3,-8.87,-10.27,-10.35,0,*54
1507615247.41,11881,10.19,73108.8,-8.87,-10.27,-10.35,0,*55
1507615248.62,11882,10.19,73118.3,-8.85,-10.31,-10.31,0,*57
1507615249.84,11883,10.19,73124.0,-8.85,-10.31,-10.35,0,*52
1507615251.06,11884,10.19,73126.3,-8.85,-10.31,-10.31,0,*51
1507615252.27,11885,10.19,73128.8,-8.85,-10.23,-10.23,0,*50
1507615253.48,11886,10.19,73138.5,-8.85,-10.19,-10.23,0,*5A
1507615254.7,11887,10.19,73136.3,-8.85,-10.19,-10.23,0,*5B
1507615255.91,11888,10.19,73130.8,-8.85,-10.09,-10.19,0,*5C
1507615257.12,11889,10.19,73130.8,-8.85,-10.19,-10.23,0,*55
1507615258.34,11890,10.19,73134.5,-8.85,-10.15,-10.27,0,*55
1507615259.58,11891,10.19,73134.8,-8.87,-10.23,-10.15,0,*52
1507615260.82,11892,10.19,73136.8,-8.87,-10.23,-10.23,0,*54
1507615262.06,11893,10.19,73138.3,-8.87,-10.23,-10.27,0,*51
1507615263.28,11894,10.19,73120.5,-8.85,-10.19,-10.19,0,*50
1507615264.5,11895,10.19,73128.3,-8.85,-10.19,-10.19,0,*51
1507615265.72,11896,10.19,73136.3,-8.85,-10.09,-10.19,0,*53
1507615266.96,11897,10.19,73136.8,-8.87,-10.15,-10.15,0,*51
1507615268.18,11898,10.19,73134.5,-8.85,-10.19,-10.19,0,*5C
1507615269.39,11899,10.19,73132.8,-8.85,-10.09,-10.19,0,*5C
1507615270.61,11900,10.19,73142.5,-8.85,-10.15,-10.23,0,*59
1507615271.82,11901,10.19,73140.8,-8.85,-10.15,-10.23,0,*58
1507615273.05,11902,10.19,73138.3,-8.87,-10.09,-10.23,0,*54
1507615274.27,11903,10.19,73140.3,-8.85,-10.19,-10.09,0,*5E
1507615275.5,11904,10.19,73140.0,-8.87,-10.09,-10.15,0,*57
1507615276.72,11905,10.19,73142.0,-8.85,-10.19,-10.09,0,*58
1507615277.93,11906,10.19,73140.0,-8.85,-10.19,-10.23,0,*53
1507615279.17,11907,10.19,73134.8,-8.87,-10.09,-10.15,0,*54
1507615280.38,11908,10.19,73134.3,-8.85,-10.09,-10.19,0,*55
1507615281.6,11909,10.19,73124.5,-8.85,-10.19,-10.19,0,*55
1507615282.81,11910,10.19,73124.0,-8.85,-10.19,-10.23,0,*54
1507615284.03,11911,10.19,73130.0,-8.85,-10.19,-10.19,0,*5C
1507615285.27,11912,10.19,73136.0,-8.87,-10.15,-10.23,0,*58
1507615286.48,11913,10.19,73138.0,-8.85,-10.09,-10.19,0,*5F
1507615287.73,11914,10.19,73142.5,-8.87,-10.15,-10.15,0,*5B
1507615288.93,11915,10.19,73144.8,-8.85,-10.09,-10.09,0,*58
1507615290.14,11916,10.19,73142.8,-8.85,-10.09,-10.23,0,*53
1507615291.35,11917,10.19,73140.8,-8.85,-10.23,-10.27,0,*5E
1507615292.56,11918,10.19,73144.3,-8.85,-10.09,-10.23,0,*5D
1507615293.8,11919,10.19,73150.5,-8.87,-10.15,-10.27,0,*57
1507615295.04,11920,10.19,73140.0,-8.87,-10.23,-10.15,0,*59
1507615296.27,11921,10.19,73134.5,-8.85,-10.19,-10.19,0,*5F
1507615297.48,11922,10.19,73122.0,-8.85,-10.19,-10.09,0,*5D
1507615298.7,11923,10.19,73108.3,-8.85,-10.19,-10.19,0,*5D
1507615299.9,11924,10.19,73114.0,-8.85,-10.09,-10.09,0,*5A
1507615301.12,11925,10.19,73120.3,-8.85,-10.09,-10.19,0,*5A
1507615302.33,11926,10.19,73124.5,-8.85,-10.09,-10.19,0,*59
1507615303.55,11927,10.19,73122.0,-8.85,-10.19,-10.19,0,*59
1507615304.76,11928,10.19,73120.3,-8.85,-10.09,-10.19,0,*57
1507615305.97,11929,10.19,73118.5,-8.85,-10.09,-10.19,0,*56
1507615307.18,11930,10.19,73126.8,-8.85,-10.19,-10.23,0,*56
1507615308.4,11931,10.19,73126.5,-8.85,-10.19,-10.19,0,*5E
1507615309.62,11932,10.19,73130.8,-8.85,-10.19,-10.19,0,*5D
1507615310.84,11933,10.19,73130.0,-8.85,-10.23,-10.23,0,*5C
1507615312.05,11934,10.19,73128.8,-8.85,-10.19,-10.31,0,*51
1507615313.3,11935,10.19,73126.8,-8.87,-10.27,-10.27,0,*58
1507615314.54,11936,10.19,73126.8,-8.87,-10.27,-10.27,0,*5B
1507615315.75,11937,10.19,73128.0,-8.85,-10.23,-10.31,0,*5B
1507615316.97,11938,10.19,73130.8,-8.85,-10.23,-10.31,0,*54
1507615318.18,11939,10.19,73132.3,-8.85,-10.23,-10.31,0,*55
1507615319.4,11940,10.19,73138.0,-8.85,-10.23,-10.31,0,*5B
1507615320.62,11941,10.19,73136.3,-8.85,-10.19,-10.31,0,*53
1507615321.83,11942,10.19,73136.8,-8.85,-10.23,-10.31,0,*59
1507615323.04,11943,10.19,73132.8,-8.85,-10.23,-10.23,0,*5B
1507615324.25,11944,10.19,73138.5,-8.85,-10.23,-10.23,0,*5C
1507615325.49,11945,10.19,73130.5,-8.87,-10.27,-10.27,0,*5F
1507615326.71,11946,10.19,73126.8,-8.85,-10.19,-10.23,0,*57
1507615327.92,11947,10.19,73120.3,-8.85,-10.19,-10.23,0,*56
1507615329.13,11948,10.19,73116.3,-8.85,-10.23,-10.23,0,*50
1507615330.35,11949,10.19,73116.3,-8.85,-10.19,-10.31,0,*5B
1507615331.57,11950,10.19,73112.5,-8.85,-10.31,-10.31,0,*59
1507615332.78,11951,10.19,73126.3,-8.85,-10.19,-10.23,0,*51
1507615334.02,11952,10.19,73132.8,-8.87,-10.23,-10.27,0,*5D
1507615335.26,11953,10.19,73126.5,-8.87,-10.23,-10.23,0,*58
1507615336.46,11954,10.19,73112.3,-8.85,-10.09,-10.23,0,*55
1507615337.68,11955,10.19,73126.3,-8.85,-10.19,-10.23,0,*55
1507615338.88,11956,10.19,73122.0,-8.85,-10.09,-10.23,0,*57
1507615340.1,11957,10.19,73114.8,-8.85,-10.15,-10.23,0,*5B
1507615341.34,11958,10.19,73114.3,-8.87,-10.15,-10.23,0,*56
1507615342.58,11959,10.19,73120.3,-8.87,-10.15,-10.23,0,*57
1507615343.82,11960,10.19,73118.8,-8.87,-10.15,-10.15,0,*58
1507615345.04,11961,10.19,73120.3,-8.85,-10.23,-10.19,0,*52
1507615346.26,11962,10.19,73120.0,-8.85,-10.19,-10.19,0,*58
1507615347.5,11963,10.19,73112.8,-8.87,-10.15,-10.23,0,*5E
1507615348.74,11964,10.19,73112.8,-8.87,-10.23,-10.23,0,*5C
1507615349.98,11965,10.19,73118.8,-8.87,-10.15,-10.23,0,*58
1507615351.19,11966,10.19,73118.0,-8.85,-10.19,-10.23,0,*55
1507615352.43,11967,10.19,73122.8,-8.87,-10.23,-10.23,0,*5F
1507615353.67,11968,10.19,73132.5,-8.87,-10.23,-10.27,0,*54
1507615354.92,11969,10.19,73134.5,-8.87,-10.15,-10.27,0,*50
1507615356.15,11970,10.19,73142.5,-8.87,-10.23,-10.23,0,*59
1507615357.39,11971,10.19,73142.3,-8.87,-10.23,-10.23,0,*58
1507615358.61,11972,10.19,73146.0,-8.85,-10.19,-10.19,0,*59
1507615359.83,11973,10.19,73148.8,-8.85,-10.19,-10.19,0,*58
1507615361.07,11974,10.19,73154.8,-8.87,-10.15,-10.23,0,*58
1507615362.31,11975,10.19,73154.0,-8.87,-10.23,-10.23,0,*5C
1507615363.55,11976,10.19,73154.5,-8.87,-10.23,-10.27,0,*5B
1507615364.79,11977,10.19,73162.3,-8.87,-10.15,-10.23,0,*5B
1507615366.03,11978,10.19,73158.8,-8.87,-10.27,-10.23,0,*55
1507615367.27,11979,10.19,73158.3,-8.87,-10.15,-10.23,0,*55
1507615368.48,11980,10.19,73152.5,-8.85,-10.09,-10.19,0,*55
1507615369.72,11981,10.19,73156.5,-8.87,-10.23,-10.23,0,*57
1507615370.93,11982,10.19,73152.3,-8.85,-10.09,-10.19,0,*57
1507615372.16,11983,10.19,73152.3,-8.87,-10.23,-10.23,0,*55
1507615373.37,11984,10.19,73154.3,-8.85,-10.23,-10.23,0,*50
1507615374.59,11985,10.19,73154.8,-8.85,-10.19,-10.31,0,*5B
1507615375.83,11986,10.19,73156.8,-8.87,-10.27,-10.27,0,*50
1507615377.08,11987,10.19,73152.0,-8.87,-10.23,-10.35,0,*56
1507615378.32,11988,10.19,73144.5,-8.87,-10.23,-10.27,0,*5A
1507615379.56,11989,10.19,73148.3,-8.87,-10.23,-10.27,0,*5B
1507615380.8,11990,10.19,73140.5,-8.87,-10.23,-10.27,0,*53
1507615382.05,11991,10.19,73140.5,-8.87,-10.23,-10.27,0,*52
1507615383.29,11992,10.19,73140.8,-8.87,-10.23,-10.27,0,*51
1507615384.53,11993,10.19,73144.3,-8.87,-10.27,-10.35,0,*57
1507615385.78,11994,10.19,73142.8,-8.87,-10.27,-10.27,0,*53
1507615387.02,11995,10.19,73142.3,-8.87,-10.27,-10.27,0,*52
1507615388.23,11996,10.19,73142.8,-8.85,-10.31,-10.23,0,*50
1507615389.48,11997,10.19,73146.0,-8.87,-10.35,-10.27,0,*53
1507615390.72,11998,10.19,73154.5,-8.87,-10.27,-10.27,0,*5F
1507615391.93,11999,10.19,73146.5,-8.85,-10.23,-10.23,0,*5C
1507615393.17,12000,10.19,73138.0,-8.87,-10.27,-10.27,0,*54
1507615394.42,12001,10.19,73130.3,-8.87,-10.23,-10.35,0,*52
1507615395.66,12002,10.19,73124.3,-8.87,-10.15,-10.15,0,*56
1507615396.91,12003,10.19,73112.8,-8.87,-10.23,-10.15,0,*52
1507615398.15,12004,10.19,73106.5,-8.87,-10.23,-10.15,0,*55
1507615399.39,12005,10.19,73110.8,-8.87,-10.09,-10.15,0,*5C
1507615400.62,12006,10.19,73096.5,-8.87,-10.15,-10.23,0,*57
1507615401.87,12007,10.19,73098.5,-8.87,-10.23,-10.27,0,*57
1507615403.11,12008,10.19,73094.5,-8.87,-10.15,-10.27,0,*5D
1507615404.32,12009,10.19,73104.8,-8.85,-10.05,-10.09,0,*53
1507615405.52,12010,10.19,73108.3,-8.85,-10.05,-10.09,0,*5B
1507615406.77,12011,10.19,73096.5,-8.87,-10.15,-10.15,0,*54
1507615407.98,12012,10.19,73100.5,-8.85,-10.09,-10.19,0,*54
1507615409.21,12013,10.19,73112.3,-8.87,-10.23,-10.23,0,*56
1507615410.42,12014,10.19,73108.3,-8.85,-10.09,-10.09,0,*53
1507615411.65,12015,10.19,73106.5,-8.87,-10.23,-10.23,0,*50
1507615412.87,12016,10.19,73114.3,-8.85,-10.19,-10.09,0,*50
1507615414.07,12017,10.19,73118.8,-8.85,-9.97,-10.19,0,*6E
1507615415.28,12018,10.19,73124.3,-8.85,-10.05,-10.19,0,*52
1507615416.5,12019,10.19,73126.8,-8.85,-10.19,-10.19,0,*5E
1507615417.73,12020,10.19,73128.3,-8.87,-10.09,-10.23,0,*5E
1507615418.97,12021,10.19,73120.5,-8.87,-10.09,-10.15,0,*5A
1507615420.21,12022,10.19,73126.5,-8.87,-10.09,-10.15,0,*59
1507615421.44,12023,10.19,73130.3,-8.87,-10.09,-10.15,0,*58
1507615422.65,12024,10.19,73118.5,-8.85,-10.09,-10.09,0,*50
1507615423.89,12025,10.19,73134.3,-8.87,-10.15,-10.15,0,*53
1507615425.13,12026,10.19,73136.0,-8.87,-10.09,-10.15,0,*5D
1507615426.36,12027,10.19,73118.8,-8.87,-10.09,-10.15,0,*5C
1507615427.59,12028,10.19,73120.0,-8.87,-10.09,-10.23,0,*56
1507615428.8,12029,10.19,73118.3,-8.85,-10.09,-10.09,0,*5D
1507615430.0,12030,10.19,73106.8,-8.85,-9.97,-10.15,0,*67
1507615431.21,12031,10.19,73082.0,-8.85,-10.05,-10.15,0,*55
1507615432.42,12032,10.19,73110.0,-8.85,-10.05,-10.23,0,*53
1507615433.65,12033,10.19,73102.5,-8.87,-10.09,-10.23,0,*5C
1507615434.88,12034,10.19,73096.8,-8.87,-10.09,-10.23,0,*5B
1507615436.1,12035,10.19,73104.3,-8.87,-10.09,-10.23,0,*5A
1507615437.34,12036,10.19,73096.0,-8.87,-10.01,-10.15,0,*54
1507615438.58,12037,10.19,73104.0,-8.87,-10.09,-10.15,0,*5D
1507615439.78,12038,10.19,73092.8,-8.85,-9.97,-10.09,0,*62
1507615441.01,12039,10.19,73102.3,-8.87,-10.01,-10.09,0,*56
1507615442.22,12040,10.19,73106.8,-8.85,-10.05,-10.09,0,*5E
1507615443.46,12041,10.19,73100.5,-8.87,-10.15,-10.09,0,*5C
1507615444.67,12042,10.19,73112.0,-8.85,-10.09,-10.15,0,*5D
1507615445.89,12043,10.19,73106.8,-8.85,-10.15,-10.15,0,*51
1507615447.13,12044,10.19,73104.3,-8.87,-10.15,-10.23,0,*51
1507615448.33,12045,10.19,73104.8,-8.85,-10.09,-10.09,0,*57
1507615449.57,12046,10.19,73114.3,-8.87,-10.15,-10.23,0,*53
1507615450.82,12047,10.19,73114.3,-8.87,-10.15,-10.15,0,*57
1507615452.06,12048,10.19,73114.5,-8.87,-10.15,-10.15,0,*58
1507615453.27,12049,10.19,73110.8,-8.85,-10.09,-10.19,0,*5A
1507615454.5,12050,10.19,73116.0,-8.87,-10.09,-10.09,0,*51
1507615455.73,12051,10.19,73116.0,-8.87,-10.01,-10.05,0,*54
1507615456.93,12052,10.19,73120.0,-8.85,-9.97,-10.05,0,*62
1507615458.14,12053,10.19,73126.8,-8.85,-10.01,-10.09,0,*58
1507615459.37,12054,10.19,73134.0,-8.87,-10.09,-10.09,0,*55
1507615460.6,12055,10.19,73128.3,-8.87,-10.01,-10.09,0,*5C
1507615461.83,12056,10.19,73128.5,-8.87,-10.09,-10.09,0,*57
1507615463.03,12057,10.19,73126.0,-8.85,-9.97,-10.09,0,*6B
1507615464.24,12058,10.19,73128.0,-8.85,-10.05,-10.09,0,*57
1507615465.46,12059,10.19,73134.8,-8.87,-10.09,-10.23,0,*50
1507615466.7,12060,10.19,73126.8,-8.87,-10.23,-10.23,0,*52
1507615467.94,12061,10.19,73124.3,-8.87,-10.15,-10.23,0,*56
1507615469.14,12062,10.19,73128.0,-8.85,-10.09,-10.09,0,*52
1507615470.39,12063,10.19,73124.8,-8.87,-10.15,-10.15,0,*51
1507615471.59,12064,10.19,73114.5,-8.85,-10.09,-10.09,0,*54
1507615472.84,12065,10.19,73118.5,-8.87,-10.15,-10.15,0,*57
1507615474.08,12066,10.19,73126.5,-8.87,-10.15,-10.23,0,*51
1507615475.32,12067,10.19,73136.8,-8.87,-10.09,-10.15,0,*58
1507615476.56,12068,10.19,73136.3,-8.87,-10.15,-10.15,0,*5A
1507615477.76,12069,10.19,73128.5,-8.85,-10.05,-10.09,0,*55
1507615479.0,12070,10.19,73114.5,-8.87,-10.09,-10.15,0,*5E
1507615480.2,12071,10.19,73110.0,-8.85,-9.97,-10.09,0,*6F
1507615481.44,12072,10.19,73124.0,-8.87,-10.09,-10.15,0,*5C
1507615482.65,12073,10.19,73122.5,-8.85,-10.05,-10.19,0,*5F
1507615483.85,12074,10.19,73138.0,-8.85,-9.97,-10.09,0,*6A
1507615485.08,12075,10.19,73140.3,-8.87,-9.97,-10.01,0,*61
1507615486.31,12076,10.19,73134.8,-8.87,-10.09,-10.05,0,*59
1507615487.54,12077,10.19,73128.5,-8.87,-10.09,-10.23,0,*5C
1507615488.78,12078,10.19,73130.3,-8.87,-10.01,-10.01,0,*5B
1507615489.97,12079,10.19,73132.0,-8.85,-9.93,-9.97,0,*5C
1507615491.17,12080,10.19,73136.0,-8.85,-10.05,-10.05,0,*5E
1507615492.37,12081,10.19,73144.3,-8.85,-10.05,-9.97,0,*6C
1507615493.58,12082,10.19,73146.3,-8.85,-10.05,-10.19,0,*51
1507615494.81,12083,10.19,73150.0,-8.87,-10.09,-10.09,0,*5F
1507615496.01,12084,10.19,73144.3,-8.85,-10.05,-10.09,0,*56
1507615497.21,12085,10.19,73144.0,-8.85,-9.93,-9.93,0,*5B
1507615498.41,12086,10.19,73138.8,-8.85,-9.93,-9.93,0,*58
1507615499.6,12087,10.19,73136.5,-8.85,-10.05,-9.97,0,*6A
1507615500.8,12088,10.19,73136.0,-8.85,-9.97,-10.05,0,*65
1507615502.01,12089,10.19,73138.5,-8.85,-10.05,-10.05,0,*57
1507615503.21,12090,10.19,73142.5,-8.85,-10.05,-10.05,0,*5F
1507615504.41,12091,10.19,73142.0,-8.85,-10.05,-10.09,0,*52
1507615505.61,12092,10.19,73142.3,-8.85,-9.97,-9.97,0,*5D
1507615506.81,12093,10.19,73142.8,-8.85,-9.97,-10.05,0,*6F
1507615508.04,12094,10.19,73138.8,-8.87,-10.09,-10.01,0,*51
1507615509.24,12095,10.19,73138.3,-8.85,-10.05,-10.05,0,*5A
1507615510.45,12096,10.19,73138.5,-8.85,-10.05,-10.19,0,*54
1507615511.66,12097,10.19,73138.8,-8.85,-10.09,-10.09,0,*58
1507615512.86,12098,10.19,73142.5,-8.85,-10.09,-10.09,0,*57
1507615514.08,12099,10.19,73138.3,-8.85,-10.19,-10.19,0,*56
1507615515.28,12100,10.19,73142.5,-8.85,-10.05,-10.09,0,*5B
1507615516.49,12101,10.19,73144.0,-8.85,-10.05,-10.19,0,*5B
1507615517.7,12102,10.19,73144.3,-8.85,-10.05,-10.19,0,*58
1507615518.91,12103,10.19,73146.8,-8.83,-10.05,-10.19,0,*5F
1507615520.12,12104,10.19,73150.3,-8.85,-10.05,-10.09,0,*5F
1507615521.32,12105,10.19,73142.0,-8.85,-10.05,-10.19,0,*5F
1507615522.54,12106,10.19,73140.3,-8.85,-10.19,-10.09,0,*50
1507615523.75,12107,10.19,73146.8,-8.83,-10.09,-10.19,0,*57
1507615524.96,12108,10.19,73148.3,-8.85,-10.09,-10.19,0,*5E
1507615526.18,12109,10.19,73140.5,-8.85,-10.19,-10.19,0,*5E
1507615527.39,12110,10.19,73144.8,-8.85,-10.19,-10.23,0,*5F
1507615528.64,12111,10.19,73134.0,-8.87,-10.27,-10.27,0,*55
1507615529.84,12112,10.19,73086.3,-8.85,-10.09,-10.23,0,*5C
1507615531.04,12113,10.19,73086.3,-8.85,-10.09,-10.09,0,*55
1507615532.25,12114,10.19,73082.5,-8.85,-10.09,-10.09,0,*52
1507615533.45,12115,10.19,73094.0,-8.85,-10.05,-10.09,0,*5F
1507615534.65,12116,10.19,73112.0,-8.85,-10.05,-10.09,0,*5C
1507615535.86,12117,10.19,73116.3,-8.85,-10.09,-10.09,0,*51
1507615537.06,12118,10.19,73126.3,-8.85,-9.97,-10.09,0,*61
1507615538.3,12119,10.19,73126.8,-8.87,-10.15,-10.23,0,*58
1507615539.52,12120,10.19,73126.3,-8.85,-10.19,-10.19,0,*55
1507615540.72,12121,10.19,73132.0,-8.85,-10.05,-10.09,0,*58
1507615541.92,12122,10.19,73134.5,-8.85,-10.09,-10.09,0,*57
1507615543.13,12123,10.19,73138.8,-8.85,-10.05,-10.09,0,*5A
1507615544.33,12124,10.19,73138.8,-8.85,-10.05,-10.09,0,*5D
1507615545.53,12125,10.19,73138.3,-8.85,-10.09,-10.05,0,*5C
1507615546.74,12126,10.19,73144.5,-8.85,-10.05,-10.09,0,*5F
1507615547.94,12127,10.19,73150.3,-8.85,-10.05,-10.09,0,*5E
1507615549.16,12128,10.19,73150.3,-8.83,-10.19,-10.19,0,*5B
1507615550.37,12129,10.19,73148.3,-8.83,-10.19,-10.23,0,*53
1507615551.58,12130,10.19,73146.0,-8.83,-10.09,-10.23,0,*5A
1507615552.78,12131,10.19,73144.5,-8.85,-10.09,-10.09,0,*55
1507615553.99,12132,10.19,73142.5,-8.85,-10.19,-10.09,0,*57
1507615555.2,12133,10.19,73134.5,-8.85,-10.09,-10.09,0,*57
1507615556.41,12134,10.19,73134.3,-8.85,-10.09,-10.19,0,*51
1507615557.61,12135,10.19,73128.8,-8.85,-10.09,-10.09,0,*51
1507615558.82,12136,10.19,73136.8,-8.85,-10.09,-10.19,0,*53
1507615560.02,12137,10.19,73138.3,-8.83,-10.09,-10.09,0,*55
1507615561.24,12138,10.19,73128.8,-8.83,-10.19,-10.09,0,*5B
1507615562.44,12139,10.19,73136.0,-8.85,-10.05,-10.05,0,*5D
1507615563.65,12140,10.19,73128.8,-8.85,-10.09,-10.19,0,*52
1507615564.9,12141,10.19,73130.8,-8.87,-10.15,-10.15,0,*50
1507615566.1,12142,10.19,73122.5,-8.83,-10.05,-10.09,0,*5B
1507615567.31,12143,10.19,73118.5,-8.83,-10.09,-10.19,0,*57
1507615568.51,12144,10.19,73116.8,-8.83,-10.09,-10.09,0,*51
1507615569.71,12145,10.19,73130.0,-8.83,-10.09,-10.09,0,*50
1507615570.92,12146,10.19,73136.3,-8.83,-10.05,-10.05,0,*53
1507615572.12,12147,10.19,73144.3,-8.85,-10.05,-10.09,0,*58
1507615573.32,12148,10.19,73132.5,-8.85,-9.93,-10.05,0,*6C
1507615574.52,12149,10.19,73140.0,-8.85,-10.05,-10.05,0,*5A
1507615575.75,12150,10.19,73134.8,-8.87,-9.93,-10.01,0,*63
1507615576.95,12151,10.19,73146.3,-8.83,-9.93,-9.93,0,*55
1507615578.14,12152,10.19,73146.5,-8.83,-9.97,-9.97,0,*56
1507615579.37,12153,10.19,73142.3,-8.81,-10.05,-10.05,0,*55
1507615580.57,12154,10.19,73142.3,-8.83,-9.97,-10.09,0,*6F
1507615581.79,12155,10.19,73146.3,-8.81,-10.05,-9.97,0,*60
1507615582.99,12156,10.19,73146.0,-8.85,-9.97,-10.05,0,*67
1507615584.19,12157,10.19,73150.3,-8.85,-9.93,-9.93,0,*55
1507615585.39,12158,10.19,73158.5,-8.83,-9.93,-10.05,0,*6B
1507615586.59,12159,10.19,73158.3,-8.85,-9.93,-10.05,0,*6C
1507615587.79,12160,10.19,73156.5,-8.85,-9.97,-10.05,0,*62
1507615588.99,12161,10.19,73156.3,-8.83,-10.05,-10.09,0,*5A
1507615590.19,12162,10.19,73154.3,-8.83,-9.97,-10.05,0,*66
1507615591.39,12163,10.19,73158.0,-8.83,-10.05,-10.05,0,*54
1507615592.59,12164,10.19,73156.5,-8.83,-9.97,-10.05,0,*60
1507615593.83,12165,10.19,73154.8,-8.81,-10.05,-10.19,0,*5D
1507615595.03,12166,10.19,73156.0,-8.83,-10.05,-10.09,0,*5D
1507615596.25,12167,10.19,73158.8,-8.81,-10.09,-10.09,0,*52
1507615597.47,12168,10.19,73162.3,-8.83,-10.09,-10.19,0,*5E
1507615598.68,12169,10.19,73154.5,-8.85,-10.19,-10.09,0,*59
1507615599.88,12170,10.19,73154.0,-8.83,-10.05,-10.09,0,*5A
1507615601.09,12171,10.19,73148.5,-8.83,-10.09,-10.19,0,*56
1507615602.3,12172,10.19,73148.3,-8.83,-10.05,-10.19,0,*59
1507615603.5,12173,10.19,73156.3,-8.83,-10.09,-10.09,0,*55
1507615604.71,12174,10.19,73160.0,-8.83,-10.09,-10.19,0,*53
1507615605.93,12175,10.19,73166.0,-8.83,-10.09,-10.19,0,*52
1507615607.13,12176,10.19,73170.0,-8.83,-10.09,-10.09,0,*50
1507615608.35,12177,10.19,73172.3,-8.83,-10.19,-10.19,0,*51
1507615609.57,12178,10.19,73170.0,-8.83,-10.19,-10.19,0,*5E
1507615610.78,12179,10.19,73168.3,-8.83,-10.09,-10.19,0,*5E
1507615612.0,12180,10.19,73162.3,-8.83,-10.19,-10.19,0,*59
1507615613.21,12181,10.19,73160.5,-8.83,-10.09,-10.19,0,*59
1507615614.41,12182,10.19,73154.3,-8.83,-10.09,-10.09,0,*5B
1507615615.63,12183,10.19,73154.5,-8.83,-10.19,-10.23,0,*53
1507615616.83,12184,10.19,73146.5,-8.83,-10.09,-10.31,0,*56
1507615618.04,12185,10.19,73134.8,-8.85,-10.09,-10.23,0,*52
1507615619.26,12186,10.19,73122.5,-8.85,-10.19,-10.19,0,*59
1507615620.48,12187,10.19,73114.8,-8.83,-10.23,-10.19,0,*57
1507615621.69,12188,10.19,73114.3,-8.83,-10.23,-10.23,0,*51
1507615622.9,12189,10.19,73110.3,-8.83,-10.23,-10.23,0,*50
1507615624.11,12190,10.19,73110.0,-8.83,-10.23,-10.31,0,*5B
1507615625.32,12191,10.19,73116.5,-8.83,-10.23,-10.23,0,*59
1507615626.53,12192,10.19,73126.0,-8.83,-10.23,-10.31,0,*59
1507615627.75,12193,10.19,73128.3,-8.83,-10.31,-10.31,0,*5B
1507615628.97,12194,10.19,73136.3,-8.83,-10.31,-10.31,0,*5C
1507615630.18,12195,10.19,73138.5,-8.83,-10.31,-10.31,0,*5D
1507615631.39,12196,10.19,73140.8,-8.83,-10.23,-10.31,0,*5D
1507615632.61,12197,10.19,73142.5,-8.83,-10.23,-10.31,0,*5C
1507615633.83,12198,10.19,73140.8,-8.83,-10.31,-10.35,0,*54
1507615635.04,12199,10.19,73142.5,-8.85,-10.19,-10.23,0,*5E
1507615636.25,12200,10.19,73140.0,-8.85,-10.23,-10.23,0,*54
1507615637.47,12201,10.19,73142.0,-8.85,-10.31,-10.31,0,*55
1507615638.68,12202,10.19,73146.3,-8.85,-10.35,-10.31,0,*52
1507615639.91,12203,10.19,73140.3,-8.85,-10.35,-10.35,0,*57
1507615641.12,12204,10.19,73144.5,-8.83,-10.31,-10.31,0,*56
1507615642.33,12205,10.19,73140.0,-8.83,-10.23,-10.23,0,*57
1507615643.54,12206,10.19,73142.8,-8.83,-10.31,-10.23,0,*57
1507615644.76,12207,10.19,73142.0,-8.83,-10.23,-10.31,0,*56
1507615645.97,12208,10.19,73146.3,-8.83,-10.31,-10.31,0,*5A
1507615647.21,12209,10.19,73148.0,-8.81,-10.23,-10.31,0,*5A
1507615648.42,12210,10.19,73140.5,-8.83,-10.31,-10.23,0,*50
1507615649.63,12211,10.19,73140.0,-8.85,-10.23,-10.31,0,*57
1507615650.85,12212,10.19,73150.3,-8.85,-10.23,-10.23,0,*57
1507615652.06,12213,10.19,73160.3,-8.83,-10.23,-10.23,0,*50
1507615653.27,12214,10.19,73166.3,-8.83,-10.23,-10.31,0,*54
1507615654.48,12215,10.19,73166.0,-8.83,-10.19,-10.23,0,*5F
1507615655.69,12216,10.19,73166.3,-8.83,-10.23,-10.23,0,*55
1507615656.9,12217,10.19,73170.5,-8.85,-10.23,-10.23,0,*52
1507615658.12,12218,10.19,73172.8,-8.85,-10.23,-10.31,0,*5E
1507615659.33,12219,10.19,73162.8,-8.83,-10.19,-10.23,0,*53
1507615660.55,12220,10.19,73154.0,-8.85,-10.23,-10.31,0,*55
1507615661.76,12221,10.19,73150.8,-8.85,-10.31,-10.31,0,*57
1507615663.0,12222,10.19,73132.3,-8.81,-10.31,-10.31,0,*50
1507615664.21,12223,10.19,73110.3,-8.83,-10.23,-10.31,0,*50
1507615665.46,12224,10.19,73112.3,-8.87,-10.35,-10.35,0,*50
1507615666.67,12225,10.19,73122.0,-8.85,-10.23,-10.23,0,*53
1507615667.88,12226,10.19,73128.8,-8.85,-10.23,-10.23,0,*50
1507615669.09,12227,10.19,73134.8,-8.85,-10.23,-10.23,0,*51
1507615670.31,12228,10.19,73140.5,-8.85,-10.23,-10.23,0,*5E
1507615671.55,12229,10.19,73150.0,-8.87,-10.23,-10.15,0,*58
1507615672.77,12230,10.19,73152.3,-8.83,-10.19,-10.31,0,*5B
1507615673.98,12231,10.19,73140.5,-8.83,-10.23,-10.23,0,*50
1507615675.19,12232,10.19,73128.5,-8.85,-10.31,-10.35,0,*51
1507615676.41,12233,10.19,73130.5,-8.85,-10.19,-10.23,0,*5D
1507615677.63,12234,10.19,73126.5,-8.85,-10.19,-10.19,0,*53
1507615678.85,12235,10.19,73126.5,-8.85,-10.19,-10.19,0,*52
1507615680.06,12236,10.19,73130.8,-8.85,-10.09,-10.19,0,*50
1507615681.27,12237,10.19,73134.0,-8.85,-10.09,-10.19,0,*51
1507615682.47,12238,10.19,73128.3,-8.85,-10.09,-10.09,0,*5F
1507615683.69,12239,10.19,73126.3,-8.85,-10.09,-10.19,0,*5F
1507615684.89,12240,10.19,73120.3,-8.85,-10.09,-10.09,0,*50
1507615686.1,12241,10.19,73126.3,-8.85,-10.09,-10.27,0,*5D
1507615687.34,12242,10.19,73122.0,-8.87,-10.23,-10.27,0,*54
1507615688.56,12243,10.19,73120.5,-8.85,-10.19,-10.23,0,*5A